アンダーソン-リニア彗星

148P/Anderson-LINEAR (2022)

English version
Home page
Updated on March 27, 2022

---------------------------------------------------------------------

・ プロフィール

・ 写真集

・ 軌道要素

Epoch 2022 Jan. 21.0 TT = JDT 2459600.5
T 2022 June 13.66272 TT                                 Rudenko
q   1.6287532            (2000.0)            P               Q
n   0.14322478     Peri.    8.01871     -0.12558633     -0.99002945
a   3.6179060      Node    89.21232     +0.90664124     -0.14063973
e   0.5498078      Incl.    3.65800     +0.40277752     +0.00788429
P   6.88
From 116 observations 2014 Aug. 27-2022 Jan. 21, mean residual 0".4.
     Nongravitational parameters A1 = -0.15, A2 = -0.2069.

・ 光度変化

        m1 = 12.5 + 5 logΔ + 14.0 log r

---------------------------------------------------------------------

軌道要素はM.P.E.C. 2022-C56に掲載されたものです。
光度グラフはComet for Windowsで作成したものです。

---------------------------------------------------------------------

Copyright(C) Seiichi Yoshida (comet@aerith.net). All rights reserved.